Erzincan, Turkey

9:44 AM +03 on October 22, 2017 (GMT +0300)
Erzincan

Weather History for LTCD - January, 2014

Change the Weather History Date:

Tuesday, January 7, 2014

  Actual Average Record
Temperature  
Mean Temperature 18 °F -  
Max Temperature 32 °F 35 °F - ()
Min Temperature 5 °F 21 °F - ()
Degree Days  
Heating Degree Days 46    
Moisture  
Dew Point 8 °F    
Average Humidity 66    
Maximum Humidity 93    
Minimum Humidity 21    
Precipitation  
Precipitation 0.00 in 0.04 in - ()
Sea Level Pressure  
Sea Level Pressure 30.31 in    
Wind  
Wind Speed 1 mph ()    
Max Wind Speed 5 mph    
Max Gust Speed -    
Visibility 4.5 miles    
Events      
T = Trace of Precipitation, MM = Missing Value Source: Averaged Metar Reports

Daily Weather History Graph

Daily Weather History Graph

Search for Another Location

Airport or City:

Trip Planner

Search our weather history database for the weather conditions in past years. The results will help you decide how hot, cold, wet, or windy it might be!

Date:

Astronomy

Jan. 07, 2014 Rise Set
Actual Time 6:43 AM EET 4:13 PM EET
Civil Twilight 6:13 AM EET 4:43 PM EET
Nautical Twilight 5:39 AM EET 5:17 PM EET
Astronomical Twilight 5:06 AM EET 5:49 PM EET
Moon 10:21 AM EET (1/7) 11:26 PM EET (1/7)
Length of Visible Light 10h 30m
Length of Day
9h 30m
Waxing Crescent, 42% of the Moon is Illuminated
Jan 7
Waxing Crescent
Jan 8
First Quarter
Jan 16
Full
Jan 24
Last Quarter
Jan 30
New

Hourly Weather History & Observations

Time (EET) Temp. Windchill Dew Point Humidity Pressure Visibility Wind Dir Wind Speed Gust Speed Precip Events Conditions
12:50 AM 10.4 °F - 6.8 °F 85% 30.33 in - East 2.3 mph - N/A   Clear
1:50 AM 10.4 °F - 5.0 °F 79% 30.33 in - Variable 1.2 mph - N/A   Clear
2:00 AM 10 °F - 8 °F 89%  in 6 mi WNW 1.2 mph - -  
2:50 AM 10.4 °F - 5.0 °F 79% 30.33 in - West 1.2 mph - N/A   Clear
3:50 AM 8.6 °F 2.0 °F 5.0 °F 85% 30.33 in - WSW 3.5 mph - N/A   Clear
4:50 AM 10.4 °F - 5.0 °F 79% 30.33 in - NE 1.2 mph - N/A   Clear
5:00 AM 10 °F - 6 °F 79%  in 6 mi NE 1.2 mph - -  
5:50 AM 8.6 °F - 5.0 °F 85% 30.33 in - Calm Calm - N/A   Clear
6:50 AM 5.0 °F - 3.2 °F 92% 30.33 in - West 1.2 mph - N/A   Clear
7:50 AM 10.4 °F - 6.8 °F 85% 30.36 in 4.3 mi Calm Calm - N/A   Partly Cloudy
8:00 AM 10 °F - 9 °F 93%  in 4 mi Calm Calm - -   Mist
8:50 AM 15.8 °F - 8.6 °F 73% 30.36 in 4.3 mi Calm Calm - N/A   Unknown
9:50 AM 19.4 °F - 8.6 °F 63% 30.36 in 3.7 mi Calm Calm - N/A   Unknown
10:20 AM 19.4 °F - 8.6 °F 63% 30.36 in 3.7 mi Calm Calm - N/A   Unknown
10:50 AM 23.0 °F - 8.6 °F 54% 30.33 in 3.7 mi Calm Calm - N/A   Unknown
11:00 AM 24 °F - 9 °F 38%  in 4 mi Calm Calm - -   Haze
11:50 AM 26.6 °F - 10.4 °F 51% 30.30 in 4.3 mi Variable 1.2 mph - N/A   Unknown
12:50 PM 28.4 °F - 10.4 °F 47% 30.27 in 4.3 mi Variable 1.2 mph - N/A   Unknown
1:50 PM 32.0 °F - 8.6 °F 38% 30.27 in 4.3 mi Calm Calm - N/A   Unknown
2:00 PM 32 °F - 7 °F 21%  in 4 mi Calm Calm - -   Haze
2:50 PM 32.0 °F - 8.6 °F 38% 30.27 in 4.3 mi Calm Calm - N/A   Unknown
3:50 PM 30.2 °F - 10.4 °F 44% 30.27 in 4.3 mi Calm Calm - N/A   Unknown
4:50 PM 24.8 °F - 10.4 °F 54% 30.27 in 4.3 mi Calm Calm - N/A   Unknown
5:00 PM 24 °F - 10 °F 42%  in 4 mi Calm Calm - -   Haze
5:50 PM 21.2 °F - 10.4 °F 63% 30.27 in 5.0 mi Calm Calm - N/A   Unknown
6:50 PM 19.4 °F - 10.4 °F 68% 30.27 in 5.0 mi Calm Calm - N/A   Unknown
7:50 PM 19.4 °F 12.8 °F 8.6 °F 63% 30.30 in - East 4.6 mph - N/A   Clear
8:00 PM 19 °F - 9 °F 53%  in 6 mi East 4.6 mph - -  
8:50 PM 15.8 °F - 6.8 °F 68% 30.30 in - Calm Calm - N/A   Clear
9:50 PM 12.2 °F - 6.8 °F 79% 30.30 in - West 1.2 mph - N/A   Clear
10:50 PM 12.2 °F - 6.8 °F 79% 30.30 in - Variable 1.2 mph - N/A   Clear
11:00 PM 12 °F - 9 °F 81%  in 6 mi ENE 1.2 mph - -  
11:50 PM 12.2 °F - 6.8 °F 79% 30.30 in - Calm Calm - N/A   Clear